[[{"header":{"parameterUnit":"m.s-1","parameterCategory":1,"la1":30.2991,"la2":30.254,"lo1":-89.0895,"lo2":-89.0444,"dy":0.0017,"dx":0.0017,"nx":28,"ny":28,"refTime":"2025-07-16T21:00:00:Z","depth":0,"parameterNumber":2,"parameterNumberName":"U-component_of_WINDS"},"data":[0,0,0,0,0,0,0,0,0,0,0,0,0,0,0,0,0,0,0,0,0,0,0,0,0,0,0,0,0,0,0,0,0,0,0,0,0,0,0,0,0,0,0,0,0,0,0,0,0,0,0,0,0,0,0,0,0,0,0.3543,0.3545,0,0.3655,0.3656,0.3658,0.369,0.3689,0.3688,0.3688,0.3803,0.3807,0.381,0,0,0,0,0,0,0,0,0,0,0,0,0,0.3359,0.3363,0.3543,0.3545,0.3546,0.3655,0.3656,0.3658,0.369,0.3689,0.3688,0.3688,0.3802,0.3806,0.381,0,0,0,0,0,0,0,0,0,0,0,0,0,0.3452,0.3364,0.3543,0.3575,0.3579,0.3654,0.3656,0.3658,0.369,0.3689,0.3688,0.3687,0.38,0.3806,0.3811,0.3863,0,0,0.3828,0.383,0,0,0,0,0,0,0,0,0.3447,0.3459,0.3569,0.3573,0.3578,0.3657,0.3634,0.3727,0.369,0.3648,0.3688,0.3687,0.3755,0.3764,0.3787,0.3868,0.3873,0.3828,0.3831,0.3834,0.3835,0,0,0,0,0,0,0,0.344,0.3454,0.3587,0.3571,0.3576,0.3584,0.3597,0.3652,0.3705,0.3651,0.3654,0.3667,0.3758,0.3782,0.379,0.3875,0.3828,0.3833,0.3836,0.3838,0.4005,0.4006,0,0,0,0,0,0,0.3428,0.3448,0.3584,0.3591,0.3508,0.3588,0.3602,0.3633,0.3705,0.3715,0.3667,0.3668,0.3773,0.3784,0.3795,0.3861,0.3834,0.3839,0.3842,0.4004,0.4005,0.4007,0,0,0,0,0,0,0.3424,0.344,0.3579,0.352,0.3539,0.3593,0.3627,0.3635,0.366,0.3717,0.3727,0.3683,0.3773,0.3787,0.3846,0.3865,0.3841,0.3846,0.4003,0.4004,0.4006,0.3993,0,0,0,0,0,0,0.3419,0.3438,0.3458,0.3521,0.3542,0.3628,0.3628,0.3638,0.3669,0.3671,0.3734,0.3743,0.3773,0.3838,0.3851,0.3872,0.3851,0.4001,0.4003,0.4005,0.3992,0.3994,0.3995,0,0,0,0,0,0.3412,0.345,0.3459,0.3475,0.3568,0.3629,0.3642,0.3675,0.3671,0.3691,0.3728,0.3741,0.3861,0.3843,0.3859,0.3882,0.4,0.4003,0.4005,0.3991,0.3993,0.3995,0,0,0,0,0,0,0.3388,0.3458,0.3469,0.3528,0.3573,0.3635,0.3662,0.3677,0.3723,0.3723,0.3763,0.3777,0.3833,0.3864,0.3843,0.3936,0.3931,0.3937,0.3914,0.3917,0.3919,0.3911,0.3855,0,0,0,0,0,0.3389,0.3433,0.3493,0.3539,0.3561,0.3607,0.3635,0.3658,0.3705,0.3724,0.3765,0.3811,0.3859,0.389,0.3937,0.3996,0.4011,0.402,0.4022,0.4023,0.4028,0.4062,0.4067,0.4015,0.4015,0.4015,0,0,0.3393,0.3437,0.3462,0.3535,0.3572,0.3617,0.3623,0.367,0.3704,0.3731,0.379,0.3821,0.3876,0.3935,0.3963,0.3962,0.4045,0.4026,0.4027,0.4031,0.4065,0.407,0.4074,0.4017,0.4017,0.4016,0,0,0.3423,0.346,0.3503,0.354,0.3596,0.3627,0.3637,0.3698,0.372,0.3779,0.3801,0.3842,0.3924,0.3962,0.3991,0.4037,0.4051,0.4051,0.4061,0.4094,0.4098,0.4102,0.4119,0.4124,0.4055,0.4055,0.4055,0,0.342,0.3488,0.3524,0.357,0.3602,0.3629,0.3673,0.3708,0.3776,0.3798,0.3795,0.3899,0.3938,0.4007,0.4018,0.4041,0.4055,0.4044,0.4095,0.4099,0.4103,0.4119,0.4126,0.4055,0.4055,0.4055,0.4055,0,0.3483,0.353,0.3558,0.3624,0.3659,0.3704,0.3746,0.3778,0.3797,0.3829,0.3889,0.3936,0.3994,0.4012,0.4031,0.4085,0.4082,0.4087,0.4082,0.4107,0.4123,0.413,0.4055,0.4055,0.4055,0.4055,0,0,0.35,0.3585,0.3594,0.3625,0.3689,0.3726,0.3773,0.383,0.3856,0.3903,0.3944,0.4013,0.4018,0.4052,0.4076,0.4105,0.4139,0.4106,0.4108,0.4111,0.4201,0.4197,0.4203,0.4149,0.415,0.4151,0.4196,0,0.3538,0.3622,0.3655,0.3724,0.3768,0.3795,0.3836,0.388,0.3911,0.3954,0.3988,0.4037,0.404,0.406,0.409,0.4128,0.4157,0.4125,0.4187,0.4189,0.4173,0.4212,0.4208,0.4248,0.4203,0.4204,0.4205,0,0.3593,0.364,0.3712,0.3772,0.3792,0.3828,0.3883,0.3923,0.3975,0.3995,0.4034,0.4056,0.4107,0.41,0.4171,0.4149,0.4176,0.4199,0.4201,0.4208,0.4198,0.422,0.4262,0.4268,0.4215,0.4214,0.4213,0,0.3598,0.368,0.3734,0.3759,0.383,0.3855,0.3886,0.3936,0.3968,0.4016,0.4038,0.4091,0.4121,0.4162,0.4199,0.419,0.4267,0.4262,0.4286,0.4286,0.4301,0.43,0.4348,0.4319,0.4319,0.4319,0.4318,0,0.3636,0.368,0.3737,0.3771,0.3821,0.3859,0.3908,0.3941,0.3986,0.4027,0.4054,0.4091,0.4138,0.4182,0.4212,0.4267,0.428,0.4298,0.4306,0.4296,0.4294,0.4314,0.4313,0.432,0.432,0.432,0.4319,0,0.365,0.369,0.3751,0.3814,0.383,0.3865,0.3918,0.3952,0.3985,0.4037,0.4051,0.4102,0.4156,0.4197,0.4267,0.4286,0.4345,0.4353,0.4327,0.4331,0.4353,0.435,0.4416,0.4427,0.439,0.4391,0.4391,0,0.3672,0.3706,0.3772,0.3801,0.3832,0.3878,0.3912,0.3952,0.3985,0.4047,0.4073,0.4129,0.4175,0.426,0.4304,0.4358,0.4367,0.4387,0.4375,0.4365,0.4368,0.4365,0.4369,0.4388,0.4388,0.4388,0.4388,0,0.3706,0.3725,0.3771,0.3825,0.3863,0.3908,0.3952,0.3975,0.4023,0.406,0.4115,0.4151,0.4223,0.4278,0.4336,0.4369,0.4387,0.4392,0.44,0.439,0.4375,0.4384,0.4332,0.439,0.439,0.439,0.4389,0.4389,0.3725,0.3757,0.3809,0.386,0.3898,0.3939,0.3975,0.4012,0.4058,0.4119,0.4141,0.4198,0.425,0.433,0.4363,0.4409,0.441,0.4422,0.4425,0.4427,0.4427,0.4367,0.442,0.442,0.442,0.442,0.442,0,0.3761,0.3796,0.3842,0.3904,0.3945,0.3959,0.4009,0.4042,0.4092,0.4139,0.4184,0.4248,0.4302,0.4351,0.4407,0.4435,0.4445,0.4448,0.4447,0.4454,0.4423,0.441,0.4439,0.4439,0.4439,0.4439,0.4439,0.4439,0.3784,0.3839,0.3864,0.3939,0.3974,0.403,0.4058,0.4097,0.4134,0.4204,0.4249,0.4281,0.4329,0.4389,0.444,0.4453,0.4472,0.4474,0.4489,0.4459,0.4456,0.4454,0.4442,0.4478,0.4478,0.4517,0.4517,0.4517]},{"header":{"parameterUnit":"m.s-1","parameterCategory":1,"la1":30.2991,"la2":30.254,"lo1":-89.0895,"lo2":-89.0444,"dy":0.0017,"dx":0.0017,"nx":28,"ny":28,"refTime":"2025-07-16T21:00:00:Z","depth":0,"parameterNumber":3,"parameterNumberName":"V-component_of_WINDS"},"data":[0,0,0,0,0,0,0,0,0,0,0,0,0,0,0,0,0,0,0,0,0,0,0,0,0,0,0,0,0,0,0,0,0,0,0,0,0,0,0,0,0,0,0,0,0,0,0,0,0,0,0,0,0,0,0,0,0,0,0.3286,0.3287,0,0.3386,0.3387,0.3388,0.3399,0.3397,0.3396,0.3395,0.3515,0.3519,0.3523,0,0,0,0,0,0,0,0,0,0,0,0,0,0.312,0.3123,0.3286,0.3287,0.3288,0.3386,0.3387,0.3389,0.3399,0.3397,0.3396,0.3395,0.3514,0.3519,0.3524,0,0,0,0,0,0,0,0,0,0,0,0,0,0.3204,0.3124,0.3286,0.3305,0.3307,0.3386,0.3387,0.3389,0.3399,0.3397,0.3396,0.3394,0.3512,0.3518,0.3524,0.3596,0,0,0.3543,0.3546,0,0,0,0,0,0,0,0,0.3199,0.321,0.3301,0.3304,0.3307,0.3378,0.3373,0.3459,0.3399,0.3365,0.3395,0.3393,0.3472,0.3481,0.3504,0.3601,0.3606,0.3544,0.3548,0.3551,0.3552,0,0,0,0,0,0,0,0.3193,0.3206,0.3326,0.3302,0.3306,0.3314,0.3324,0.3389,0.3427,0.3368,0.3369,0.3379,0.3473,0.3498,0.3507,0.3608,0.3544,0.3549,0.3553,0.3556,0.3773,0.3774,0,0,0,0,0,0,0.3181,0.3201,0.3323,0.3329,0.3247,0.3318,0.3329,0.3357,0.3426,0.3435,0.3381,0.3379,0.3488,0.35,0.3511,0.3601,0.355,0.3556,0.356,0.3771,0.3773,0.3775,0,0,0,0,0,0,0.3178,0.3192,0.3319,0.3265,0.3282,0.3322,0.3354,0.336,0.3384,0.3435,0.3444,0.3398,0.3487,0.3503,0.3574,0.3605,0.3559,0.3565,0.3768,0.3771,0.3774,0.3779,0,0,0,0,0,0,0.3173,0.3191,0.3214,0.3265,0.3284,0.3374,0.3355,0.3363,0.3393,0.3392,0.3454,0.3463,0.3487,0.3565,0.358,0.3613,0.357,0.3766,0.377,0.3773,0.3776,0.3782,0.3786,0,0,0,0,0,0.3167,0.3215,0.3215,0.323,0.3313,0.3376,0.3388,0.341,0.3395,0.3422,0.3455,0.3461,0.3599,0.3572,0.359,0.3624,0.3764,0.3769,0.3773,0.3774,0.3781,0.3786,0,0,0,0,0,0,0.3171,0.3222,0.3223,0.3287,0.3326,0.3377,0.3411,0.3416,0.3464,0.3463,0.3494,0.3508,0.3578,0.3609,0.3578,0.3699,0.3681,0.3689,0.3676,0.3682,0.3687,0.3679,0.3575,0,0,0,0,0,0.3179,0.322,0.3264,0.3317,0.3336,0.337,0.3398,0.3412,0.3456,0.3475,0.3513,0.3561,0.3615,0.3651,0.3704,0.3781,0.3797,0.3815,0.3819,0.3823,0.3831,0.3877,0.3886,0.379,0.379,0.379,0,0,0.3197,0.3229,0.3254,0.3319,0.3351,0.3398,0.3384,0.3435,0.3471,0.3484,0.3552,0.3583,0.3639,0.3714,0.3749,0.3742,0.3861,0.3829,0.3832,0.3837,0.3883,0.3892,0.39,0.3793,0.3792,0.3792,0,0,0.3253,0.328,0.3327,0.3359,0.3406,0.3428,0.344,0.349,0.3509,0.3577,0.3588,0.3636,0.3728,0.3768,0.38,0.3873,0.3881,0.389,0.3917,0.3962,0.397,0.3977,0.4005,0.4014,0.3897,0.3897,0.3897,0,0.327,0.3335,0.3353,0.3401,0.3432,0.344,0.3492,0.3524,0.3588,0.3611,0.3601,0.3717,0.3755,0.3841,0.3858,0.3884,0.3902,0.3883,0.3966,0.3973,0.398,0.4007,0.4018,0.3898,0.3898,0.3898,0.3898,0,0.3356,0.3402,0.3435,0.3491,0.3525,0.3576,0.3606,0.3639,0.3651,0.3676,0.3748,0.3794,0.3857,0.3879,0.3893,0.3968,0.3962,0.3958,0.3941,0.399,0.4016,0.4026,0.3899,0.3899,0.3899,0.3898,0,0,0.3417,0.348,0.3493,0.3519,0.3572,0.3611,0.3664,0.372,0.375,0.3795,0.3843,0.3922,0.3919,0.3956,0.3975,0.4014,0.4071,0.4006,0.4008,0.4018,0.4161,0.4163,0.4174,0.4077,0.4079,0.408,0.4157,0,0.3479,0.3566,0.3585,0.3663,0.3708,0.3718,0.3765,0.3806,0.3832,0.3879,0.3911,0.3966,0.3957,0.398,0.4019,0.4055,0.4101,0.405,0.4127,0.413,0.4113,0.4188,0.419,0.426,0.4167,0.4169,0.417,0,0.3563,0.3604,0.3686,0.3734,0.3754,0.3794,0.3849,0.3891,0.3941,0.3958,0.3998,0.4013,0.4076,0.4054,0.4143,0.4109,0.4142,0.4166,0.4169,0.4178,0.4153,0.42,0.4282,0.4293,0.4186,0.4185,0.4183,0,0.3601,0.3678,0.3736,0.3759,0.3816,0.3845,0.3872,0.3918,0.3952,0.4002,0.4025,0.4083,0.4116,0.4164,0.4197,0.4178,0.4284,0.4265,0.4305,0.4304,0.4327,0.4325,0.4416,0.4347,0.4346,0.4346,0.4346,0,0.3669,0.3719,0.3754,0.379,0.3848,0.3871,0.393,0.3958,0.4,0.4046,0.4061,0.4106,0.4145,0.4198,0.4225,0.4296,0.4311,0.433,0.4337,0.4329,0.4327,0.4352,0.4348,0.4349,0.4348,0.4348,0.4347,0,0.372,0.3745,0.381,0.3858,0.3872,0.3913,0.3957,0.3996,0.4022,0.4081,0.4097,0.4141,0.4203,0.424,0.432,0.4339,0.4418,0.4423,0.4399,0.4403,0.444,0.4436,0.4551,0.4569,0.4486,0.4487,0.4488,0,0.3762,0.38,0.3851,0.388,0.3905,0.3953,0.3986,0.4012,0.4047,0.4107,0.414,0.4201,0.4252,0.4352,0.4395,0.4458,0.4465,0.4501,0.4475,0.4467,0.4468,0.4465,0.4471,0.4506,0.4507,0.4507,0.4508,0,0.3834,0.3845,0.3888,0.3937,0.3974,0.4015,0.4057,0.4082,0.4116,0.4156,0.4216,0.4255,0.4335,0.4398,0.4464,0.4499,0.4512,0.4515,0.4528,0.4521,0.4506,0.4516,0.4412,0.4513,0.4512,0.4512,0.4512,0.4512,0.3883,0.3918,0.3959,0.4008,0.4041,0.4079,0.4118,0.4148,0.4197,0.4259,0.4274,0.4339,0.4392,0.4481,0.4517,0.4573,0.4568,0.4586,0.4591,0.4595,0.4596,0.4496,0.4586,0.4585,0.4585,0.4585,0.4585,0,0.3957,0.3984,0.4028,0.4083,0.4123,0.4125,0.4172,0.4207,0.4261,0.4306,0.4355,0.4427,0.4488,0.4536,0.4601,0.4637,0.4644,0.4653,0.4651,0.466,0.4596,0.4579,0.4646,0.4646,0.4646,0.4646,0.4646,0.4646,0.4,0.4059,0.4075,0.4152,0.4181,0.4239,0.4266,0.4304,0.434,0.4417,0.4465,0.4494,0.4543,0.4611,0.467,0.4683,0.4708,0.4716,0.4731,0.4671,0.4664,0.4658,0.4642,0.4721,0.4721,0.479,0.479,0.4791]}]]